Showing default

BEIDOU 3M16, 43648

Orbit data source: Space-Track

BEIDOU 3M16, 43648 is a payload satellite owned by CNSA (CN) in MEO that was launched on Mon, 15 Oct 2018 UTC via a CHANG ZHENG 3B/YZ-1 launch vehicle from the Xichang Space Center, China (XSC). Payload-class satellites include a variety of spacecraft equipped with specific instruments for various scientific and technological missions. These include communications satellites like Starlink; space stations such as the ISS; scientific satellites like the Hubble; Earth observation satellites from companies like Planet Labs, Umbra, and HawkEye 360; GPS; miniature CubeSats for education and research; and military/defense satellites.

Loading next visibility...
Identifier
43648, 2018-078B
Orbit
MEO
Country
Flag of CNCN / PRC
Related business
Manufacturer
SECM
Mission
Operational Defense Navigation
Bus & Motor
BD-3M/SAR, Unknown motor
Mass
1,014 kg wet, ~850 kg dry
Launch date (UTC)
2018-10-15 (8 years ago)
Launch vehicle
CHANG ZHENG 3B/YZ-1
Launch site
Xichang Space Center, China (XSC)
Object type
Payload
Rocket body
Debris
Shape & HBR
Box + 2 Pan, 5.0 m
Radar Cross Section
8.984 m², Large (>1 m²)

Expand to show TLE details & history
Last TLE update: 1 week ago

TLE from 1 week ago
0 BEIDOU 3M16
1 43648U 18078B   26152.57744501 -.00000074  00000-0  00000-0 0  9990
2 43648  54.1007 300.5335 0004536  56.3394 303.6792  1.86232507 51887
Epoch: 2026-06-01T13:51Z
TLE epoch observation values (Epoch: 2026-06-01T13:51:31.248Z)
Latitude
-0.00001°
Longitude
-157.43386°
Altitude
21,521.157 km
Speed
3.78 km/s
True Right ascension
20h 02m 02s
True Declination
0° 00' 00"
Sunlit
Object was in daylight at epoch
Visualization orbit readout
Latitude
Unknown
Longitude
Unknown
Altitude
Unknown
Speed
Unknown
Apparent Right ascension
Unknown
Apparent Declination
Unknown
Sunlit
N/A
Visualization observer readout
Local Sidereal Time
22:33:18
Azimuth
Unknown
Elevation
Unknown
Doppler factor
Unknown
Orbital elements
Apogee altitude
21,540.601 km
Perigee altitude
21,515.285 km
Semi-major axis
27,906.08 km
Eccentricity
0.00045
Inclination
54.1007°
RAAN
300.5335°
Arg. of periapsis
56.3394°
True anomaly
303.63593°
Mean anomaly
303.6792°
Eccentric anomaly
303.65757°
Mean motion
0.46558 °/min
Orbital period
773.23 mins
BSTAR
0
Loading maneuver chart data...
Computing Atmospheric mass density...
Loading historical data...
Loading historical data...
Loading historical data...
Loading historical data...
Loading historical data...
Loading historical data...
Loading historical data...
Other satellites on launch #78 in the year 2018 (2018-10-15 UTC)

Documentation

Showing up to 5 results
|